This demonstration page uses our WeatherBlox Daily Observations layout. Learn more.

38.88101, -77.10428

Hourly Observations for September 30, 2015

Temp ( °F °C ) Dew Point ( °F °C ) Humidity (%) Winds ( mph kmh ) Pressure ( in mb ) Visibility ( mi km ) Precip ( " mm )
12:33 am 00:33 Cloudy 73 23 72 22 94 94 SW 6 9 29.74 1007 10 16.0934 0 0
12:52 am 00:52 Mostly Cloudy 74 23.3 72 22.2 94 94 SSW 3 6 29.72 1007 10 16.0934 0 0
1:52 am 01:52 Cloudy 74 23.3 72 22.2 94 94 SSW 8 13 29.71 1006 10 16.0934 0 0
2:52 am 02:52 Cloudy 74 23.3 72 22.2 94 94 SSW 8 13 29.71 1006 10 16.0934 0 0
3:52 am 03:52 Cloudy 74 23.3 72 22.2 94 94 SSW 8 13 29.7 1006 10 16.0934 0 0
4:52 am 04:52 Cloudy 74 23.3 73 22.8 97 97 SW 6 9 29.69 1005 8 12.87472 0 0
4:56 am 04:56 Cloudy 73 23 73 23 100 100 SW 5 7 29.68 1005 8 12.87472 0 0
5:38 am 05:38 Cloudy 73 23 73 23 100 100 SW 5 7 29.68 1005 10 16.0934 0 0
5:52 am 05:52 Cloudy 74 23.3 73 22.8 97 97 SW 6 9 29.69 1006 10 16.0934 0 0
6:03 am 06:03 Cloudy 73 23 73 23 100 100 SSW 6 9 29.68 1005 10 16.0934 0 0
6:26 am 06:26 Cloudy with Light Rain 73 23 73 23 100 100 SSW 6 9 29.71 1006 10 16.0934 0 0
6:52 am 06:52 Cloudy with Light Rain 74 23.3 72 22.2 94 94 SW 7 11 29.71 1006 8 12.87472 0 0.0254
7:52 am 07:52 Cloudy 74 23.3 73 22.8 97 97 VRB 3 6 29.72 1007 10 16.0934 0 0.0254
8:09 am 08:09 Cloudy with Mist and Fog 73 23 73 23 100 100 Calm 29.74 1007 3 4.82802 0 0
8:17 am 08:17 Cloudy 73 23 73 23 100 100 Calm 29.74 1007 8 12.87472 0 0
8:52 am 08:52 Cloudy 75 23.9 73 22.8 94 94 Calm 29.74 1007 10 16.0934 0 0
9:52 am 09:52 Cloudy with Light Rain 74 23.3 72 22.2 94 94 NNW 9 15 29.75 1008 10 16.0934 0 0.0254
9:56 am 09:56 Cloudy with Light Rain 73 23 72 22 94 94 NNW 8 13 29.74 1007 5 8.0467 0 0.0254
10:05 am 10:05 Cloudy with Light Rain 73 23 72 22 94 94 NNW 8 13 29.77 1008 3 4.82802 0 0.0254
10:28 am 10:28 Cloudy 75 24 72 22 89 89 NW 5 7 29.77 1008 9 14.48406 0 0
10:39 am 10:39 Cloudy 75 24 72 22 89 89 NNW 6 9 29.77 1008 10 16.0934 0 0.0254
10:52 am 10:52 Cloudy with Light Rain 75 23.9 72 22.2 90 90 NNW 9 15 29.77 1008 10 16.0934 0 0.0254
11:30 am 11:30 Cloudy with Light Rain 75 24 72 22 89 89 NNW 8 13 29.77 1008 10 16.0934 0 0
11:52 am 11:52 Cloudy 77 25 72 22.2 85 85 NNW 9 15 29.78 1008 10 16.0934 0 0.0254
12:52 pm 12:52 Cloudy 77 25 70 21.1 79 79 NW 10 17 29.78 1009 10 16.0934 0 0
1:47 pm 13:47 Cloudy with Light Rain 72 22 66 19 83 83 N 20 31 29.8 1009 3 4.82802 0 0.0254
1:52 pm 13:52 Cloudy with Light Rain 71 21.7 68 20 90 90 NNW 15 24 29.8 1009 2.5 4.02335 0 0.0254
2:04 pm 14:04 Cloudy with Light Rain 70 21 66 19 88 88 NNW 17 28 29.8 1009 4 6.43736 0 0
2:21 pm 14:21 Cloudy 70 21 66 19 88 88 N 18 30 29.83 1010 10 16.0934 0 0.0254
2:52 pm 14:52 Cloudy 71 21.7 66 18.9 84 84 N 15 24 29.82 1010 10 16.0934 0 0.0254
3:01 pm 15:01 Cloudy 72 22 64 18 78 78 N 16 26 29.83 1010 10 16.0934 0 0
3:52 pm 15:52 Cloudy 72 22.2 63 17.2 73 73 N 15 24 29.83 1010 10 16.0934 0 0
4:52 pm 16:52 Cloudy 72 22.2 63 17.2 73 73 N 18 30 29.83 1010 10 16.0934 0 0
5:04 pm 17:04 Cloudy 72 22 63 17 73 73 N 16 26 29.83 1010 10 16.0934 0 0
5:52 pm 17:52 Cloudy 71 21.7 62 16.7 73 73 N 16 26 29.85 1011 10 16.0934 0 0.0254
5:59 pm 17:59 Cloudy 72 22 63 17 73 73 NNE 18 30 29.85 1011 10 16.0934 0 0
6:48 pm 18:48 Cloudy 72 22 61 16 69 69 NNE 12 19 29.88 1012 10 16.0934 0 0
6:52 pm 18:52 Cloudy 72 22.2 61 16.1 68 68 NNE 12 19 29.87 1012 10 16.0934 0 0
7:52 pm 19:52 Cloudy 71 21.7 61 16.1 71 71 NNE 9 15 29.88 1012 10 16.0934 0 0
8:31 pm 20:31 Cloudy 70 21 61 16 73 73 N 21 33 29.88 1012 10 16.0934 0 0
8:52 pm 20:52 Cloudy 69 20.6 58 14.4 68 68 N 21 33 29.89 1012 10 16.0934 0 0
9:52 pm 21:52 Cloudy 67 19.4 58 14.4 73 73 N 17 28 29.92 1013 10 16.0934 0 0
10:52 pm 22:52 Cloudy 65 18.3 57 13.9 76 76 N 17 28 29.93 1014 10 16.0934 0 0
11:52 pm 23:52 Cloudy 64 17.8 56 13.3 75 75 N 18 30 29.94 1014 10 16.0934 0 0

Powered by AerisWeather